Wind_Speed
52 53 54 54 55 55 56 57 58 59 59 60 60 60 59 59 60 60 59 58 56 54 53 52 52 53 53 51 50 53 55 54 53 55 57 60 62 61 59 59 57 55
53 54 55 55 56 57 58 59 60 62 62 63 63 62 62 62 61 61 61 60 58 55 53 52 51 51 52 52 52 52 55 57 56 56 57 60 61 58 57 59 59 56
54 55 55 56 57 58 59 60 62 63 64 64 65 65 65 64 64 62 61 59 57 55 54 52 49 49 49 51 53 53 55 57 59 58 59 62 63 60 59 60 59 56
55 55 55 56 58 59 61 62 62 63 64 65 66 66 66 66 65 63 61 59 57 55 53 52 49 47 47 49 52 54 56 58 60 60 60 62 65 65 65 63 61 56
55 56 56 57 59 61 62 63 64 64 65 66 66 67 67 67 66 64 62 60 58 56 54 51 49 47 46 48 51 54 56 58 60 61 61 61 63 66 66 65 62 59
56 56 57 59 60 62 64 65 65 66 66 66 67 67 68 67 67 65 64 61 59 57 55 51 48 47 45 46 50 53 56 59 60 61 61 61 62 64 66 66 63 60
57 57 58 60 62 64 65 66 67 67 68 68 68 68 68 67 66 65 64 63 61 59 57 53 49 46 45 45 48 52 56 58 60 62 61 61 61 63 65 66 64 61
57 58 59 61 63 65 66 68 68 69 69 69 69 69 68 67 66 66 65 64 62 59 57 54 50 46 45 44 46 50 54 58 60 61 61 60 61 62 64 65 64 62
58 59 60 62 63 65 67 68 69 70 70 70 70 69 69 68 67 66 66 65 64 60 57 54 50 47 44 44 45 47 52 56 58 60 60 60 60 62 63 64 63 62
58 60 61 63 64 66 68 69 69 70 71 71 71 70 70 69 69 68 67 66 65 61 57 54 50 46 44 43 44 46 49 54 57 58 59 60 61 61 62 63 63 62
59 61 63 64 65 67 68 69 70 71 72 72 71 71 71 71 70 69 68 68 66 61 56 53 49 45 43 42 42 44 47 51 55 57 58 59 60 61 62 63 63 63
59 61 63 65 66 67 68 69 71 72 72 73 73 72 72 72 71 70 70 69 67 61 55 51 47 43 42 41 41 43 45 49 52 55 57 59 60 61 63 64 64 63
60 62 64 66 67 68 69 70 72 73 73 74 74 74 74 73 73 72 71 70 67 61 54 50 46 42 40 40 40 42 44 47 50 53 56 58 61 62 63 65 65 64
61 62 65 67 69 70 70 71 72 73 74 75 76 75 75 75 74 73 72 71 67 60 54 49 44 40 39 38 39 40 42 44 48 52 55 58 61 62 63 65 66 66
61 63 66 68 70 71 72 72 73 74 75 76 77 77 76 76 75 74 73 71 67 59 53 48 43 38 37 37 38 39 40 42 46 51 54 57 61 62 64 65 66 67
63 65 67 70 72 73 73 74 75 75 76 77 78 78 77 77 76 75 73 70 66 58 52 47 41 37 35 35 36 37 38 40 43 48 53 56 60 62 64 65 66 67
65 67 69 72 73 74 75 75 76 77 77 78 78 79 78 77 76 75 72 69 64 56 50 46 40 35 33 34 34 35 36 38 41 46 51 55 58 62 63 64 66 67
67 69 71 74 75 76 77 78 78 78 79 79 79 79 79 77 76 74 72 68 61 54 49 44 39 34 31 32 33 34 35 37 40 44 48 53 57 61 63 64 65 66
69 72 74 76 77 79 79 80 80 80 80 80 80 80 79 78 76 74 70 65 59 52 47 42 37 33 30 30 31 33 34 36 39 42 46 50 54 59 62 63 64 66
72 74 76 78 80 81 82 82 82 82 81 81 80 80 79 78 75 72 68 63 56 50 46 40 36 31 28 29 30 32 33 35 38 40 43 46 51 56 60 62 64 65
75 78 79 80 82 83 83 84 84 83 82 81 81 80 79 77 74 70 65 60 53 48 44 39 34 30 27 27 29 31 33 34 35 37 39 42 47 53 57 60 62 64
79 81 82 83 83 84 85 85 85 84 84 83 81 80 78 76 72 66 62 57 50 46 43 37 32 28 26 27 28 30 31 32 33 35 36 38 43 49 53 56 59 62
81 83 84 85 85 86 86 86 86 85 85 83 82 79 77 73 68 63 58 53 47 44 41 35 31 27 25 26 28 28 29 29 30 33 34 34 38 43 48 51 55 59
83 84 85 86 87 88 88 88 87 87 85 83 81 78 74 70 64 59 55 49 45 42 38 33 29 26 25 26 27 27 28 28 29 31 31 30 32 37 42 47 51 55
84 86 87 88 89 89 90 90 89 87 85 82 79 75 71 66 61 56 51 46 42 39 35 31 27 24 24 26 27 27 27 27 28 30 28 27 28 31 36 43 47 51
86 87 88 89 90 91 91 91 89 87 84 80 76 72 68 63 57 53 48 42 39 36 32 29 26 24 24 27 28 28 27 26 28 29 28 26 26 26 30 37 42 45
Wind_Direction
311 311 311 311 312 313 314 315 314 312 312 311 311 311 311 311 310 309 308 305 302 298 294 289 285 280 275 268 260 255 254 252 248 243 241 242 245 246 243 243 243 243
311 310 311 312 313 314 315 315 314 313 313 313 313 314 313 313 312 310 309 306 304 300 296 291 284 278 273 267 261 254 251 250 247 243 239 238 241 243 241 239 240 242
310 310 311 312 313 314 314 314 314 314 314 314 314 314 314 313 312 311 309 307 305 303 299 294 286 278 271 265 260 254 249 247 246 243 239 236 237 239 240 239 239 239
309 309 311 312 313 313 313 313 314 314 314 314 314 314 314 313 313 311 310 309 308 306 302 297 290 280 270 263 258 253 248 245 244 243 240 237 236 237 239 239 239 238
308 309 310 312 313 313 313 313 314 314 314 314 314 314 314 314 313 312 312 311 311 309 306 300 292 282 272 263 257 252 247 244 242 242 240 238 236 235 237 238 238 236
308 309 310 312 312 313 313 313 313 314 314 314 314 314 314 314 314 314 314 314 314 313 309 302 294 284 274 265 257 251 246 243 241 240 239 238 236 235 235 236 236 234
308 309 310 311 312 312 312 313 313 314 314 314 314 314 314 315 315 315 316 315 316 315 311 304 296 286 276 267 258 250 246 242 239 238 237 236 235 234 233 234 235 234
308 308 309 310 311 312 312 313 313 314 314 314 314 314 315 315 316 317 317 317 317 317 313 305 297 288 279 270 260 251 245 242 239 236 235 234 233 232 232 232 233 233
308 308 308 309 310 311 312 313 314 314 314 314 314 315 315 316 317 318 318 318 319 318 314 306 298 290 281 272 262 253 245 241 239 236 233 232 231 230 229 229 230 231
308 308 309 310 311 312 313 313 314 314 314 314 314 315 316 318 319 319 319 319 320 319 314 306 298 290 283 274 265 254 245 240 238 235 232 230 229 228 227 227 226 227
308 308 309 310 311 312 313 314 314 314 314 314 315 316 318 319 319 320 320 320 320 319 315 307 298 290 283 275 266 257 247 240 237 234 230 228 227 226 225 225 223 223
308 308 309 310 312 313 314 315 314 314 314 315 316 318 319 319 320 320 320 320 320 319 315 307 298 290 282 275 267 258 248 241 237 233 229 226 225 223 223 223 222 221
308 308 310 311 313 314 315 315 315 315 316 316 317 319 319 320 320 320 320 320 320 319 315 307 297 289 281 274 266 258 249 241 236 232 227 224 224 222 221 221 220 219
308 310 311 313 314 315 316 316 316 316 317 317 318 319 319 319 319 319 319 319 319 318 314 306 297 288 280 272 265 258 249 241 236 232 227 223 222 221 219 219 218 218
309 311 313 315 316 316 316 317 317 317 318 318 318 319 319 318 318 318 318 319 319 317 313 306 296 286 278 269 263 257 249 242 236 232 227 222 221 220 219 218 217 217
312 313 315 316 317 317 317 318 318 318 318 318 318 318 318 317 317 317 317 318 317 316 312 305 295 285 276 267 261 255 248 241 235 231 228 223 220 220 219 218 217 216
313 315 316 317 317 318 318 318 318 318 318 318 318 317 317 316 316 316 317 317 316 314 311 304 293 284 275 266 259 252 246 241 234 230 228 224 221 220 219 218 216 216
315 316 317 318 318 318 318 318 318 318 318 318 317 316 316 315 315 316 316 315 314 313 309 302 292 282 273 263 255 248 243 239 234 230 228 225 222 220 219 218 217 216
316 317 318 319 319 319 318 318 318 318 318 317 316 316 315 315 315 315 314 314 313 311 308 299 289 280 271 260 251 244 239 236 233 229 227 225 223 220 219 219 217 216
317 318 319 319 319 319 318 318 318 318 317 316 315 315 314 314 314 314 313 312 311 310 306 297 286 277 267 256 248 241 236 234 232 230 227 225 223 221 219 218 218 217
318 319 319 319 318 318 318 318 317 317 316 315 315 314 313 313 313 312 312 311 310 307 303 295 283 274 264 253 245 238 234 231 230 229 226 224 223 221 219 218 218 218
318 318 318 318 317 317 317 317 316 316 315 315 314 314 313 312 312 311 310 309 308 305 300 292 280 270 260 249 242 236 232 229 226 223 221 221 221 220 219 218 217 217
317 317 317 317 317 317 317 316 316 316 315 314 314 313 312 311 311 310 309 308 307 303 297 288 276 266 255 245 238 232 227 224 221 217 214 215 218 218 217 216 217 217
315 315 316 316 317 317 317 316 316 315 314 313 313 312 312 311 310 309 308 307 304 300 293 283 272 262 250 241 232 225 221 219 214 209 207 209 214 215 213 213 214 215
314 315 316 316 317 317 317 316 316 315 314 313 313 312 311 310 309 308 307 305 302 296 289 278 268 257 245 236 225 218 216 213 206 201 200 204 209 210 210 210 210 211
314 315 316 316 317 317 317 316 315 314 313 313 313 312 311 309 308 307 306 303 299 292 283 273 263 251 239 229 219 212 210 205 198 194 194 199 203 205 207 208 208 208
Height
10856 10853 10850 10848 10845 10841 10838 10834 10831 10828 10824 10821 10817 10815 10812 10809 10806 10802 10800 10797 10796 10794 10791 10789 10786 10784 10784 10786 10789 10789 10789 10792 10795 10798 10801 10803 10803 10807 10813 10817 10820 10822
10850 10847 10844 10841 10837 10834 10831 10827 10823 10819 10815 10812 10808 10805 10803 10800 10798 10794 10791 10787 10785 10783 10780 10779 10777 10775 10773 10773 10776 10778 10778 10780 10783 10786 10790 10793 10794 10796 10802 10807 10811 10814
10844 10841 10838 10834 10831 10827 10824 10821 10817 10812 10808 10804 10800 10797 10794 10791 10789 10786 10782 10779 10775 10773 10769 10767 10765 10764 10763 10762 10763 10765 10767 10768 10770 10774 10779 10782 10784 10787 10791 10797 10801 10806
10839 10835 10832 10829 10825 10821 10818 10815 10811 10807 10802 10798 10793 10790 10786 10783 10779 10776 10773 10770 10766 10763 10759 10756 10754 10752 10752 10752 10752 10753 10755 10757 10759 10762 10767 10771 10775 10778 10781 10787 10792 10798
10833 10830 10826 10823 10819 10815 10811 10807 10804 10800 10796 10792 10787 10783 10779 10775 10770 10766 10763 10760 10756 10752 10749 10746 10743 10741 10741 10741 10741 10742 10743 10746 10748 10751 10756 10760 10764 10768 10772 10777 10783 10789
10826 10823 10820 10816 10812 10808 10804 10800 10796 10793 10789 10785 10781 10777 10772 10768 10762 10757 10753 10749 10745 10742 10738 10735 10733 10731 10730 10730 10730 10731 10732 10735 10737 10740 10745 10750 10754 10758 10763 10768 10773 10780
10820 10817 10814 10810 10806 10802 10797 10793 10789 10785 10781 10778 10774 10770 10765 10761 10755 10750 10744 10740 10736 10732 10727 10724 10722 10720 10719 10719 10720 10720 10721 10724 10726 10729 10734 10740 10744 10749 10753 10758 10764 10770
10814 10811 10807 10804 10800 10795 10790 10785 10781 10777 10773 10769 10766 10762 10758 10753 10748 10742 10737 10732 10727 10723 10718 10713 10711 10710 10709 10709 10709 10710 10711 10713 10716 10719 10724 10730 10734 10739 10744 10749 10755 10761
10808 10804 10801 10797 10793 10788 10783 10779 10774 10770 10765 10761 10758 10754 10750 10745 10739 10734 10729 10723 10719 10715 10710 10704 10701 10700 10699 10698 10699 10700 10701 10703 10706 10710 10715 10720 10725 10729 10734 10741 10747 10752
10801 10797 10794 10790 10786 10782 10777 10772 10767 10762 10758 10753 10749 10745 10741 10736 10731 10725 10720 10715 10710 10706 10701 10696 10693 10691 10690 10689 10689 10690 10691 10693 10697 10701 10706 10711 10716 10720 10726 10732 10739 10744
10795 10790 10786 10783 10779 10775 10771 10765 10760 10755 10750 10745 10741 10736 10732 10727 10722 10717 10711 10706 10702 10698 10693 10688 10685 10683 10681 10680 10680 10681 10682 10685 10688 10693 10698 10703 10708 10712 10717 10723 10730 10736
10788 10784 10779 10776 10772 10768 10764 10758 10752 10747 10742 10737 10732 10727 10723 10717 10712 10708 10703 10698 10694 10690 10686 10680 10677 10675 10673 10672 10672 10673 10674 10676 10679 10684 10690 10695 10699 10704 10709 10714 10721 10728
10782 10778 10773 10769 10764 10760 10756 10751 10745 10739 10734 10728 10723 10718 10713 10708 10703 10699 10695 10690 10685 10682 10678 10673 10670 10668 10666 10665 10665 10665 10666 10668 10671 10676 10681 10686 10691 10696 10701 10706 10713 10720
10775 10771 10766 10761 10757 10752 10748 10743 10737 10731 10725 10719 10714 10710 10705 10699 10695 10690 10686 10682 10678 10674 10671 10666 10663 10661 10659 10658 10658 10658 10659 10661 10664 10668 10673 10677 10682 10688 10693 10699 10705 10711
10768 10764 10759 10754 10749 10744 10739 10735 10729 10724 10717 10711 10705 10701 10697 10691 10687 10682 10678 10673 10670 10667 10663 10660 10656 10654 10653 10651 10651 10651 10653 10655 10658 10661 10665 10669 10674 10679 10685 10691 10697 10703
10761 10756 10752 10747 10741 10736 10731 10726 10721 10716 10710 10704 10698 10693 10689 10684 10679 10675 10670 10666 10662 10659 10656 10653 10650 10648 10646 10645 10645 10646 10647 10649 10652 10655 10658 10663 10667 10672 10678 10683 10690 10695
10754 10749 10744 10738 10733 10728 10723 10718 10713 10708 10703 10697 10691 10685 10681 10676 10671 10667 10663 10658 10655 10652 10649 10645 10643 10641 10640 10640 10640 10640 10641 10643 10645 10649 10652 10656 10660 10665 10670 10676 10683 10688
10746 10741 10736 10730 10725 10720 10715 10710 10705 10700 10695 10689 10683 10677 10672 10668 10663 10659 10655 10651 10647 10644 10642 10639 10636 10635 10634 10634 10634 10634 10635 10637 10640 10643 10646 10650 10654 10658 10664 10670 10676 10682
10738 10733 10728 10722 10716 10711 10706 10701 10696 10692 10687 10681 10675 10669 10664 10659 10655 10651 10647 10643 10640 10637 10635 10632 10630 10628 10628 10628 10628 10629 10630 10631 10634 10636 10640 10643 10647 10652 10657 10663 10670 10676
10729 10724 10719 10714 10708 10702 10697 10692 10688 10683 10678 10672 10667 10661 10656 10651 10647 10643 10639 10636 10633 10629 10627 10625 10623 10622 10622 10622 10623 10624 10625 10626 10628 10631 10635 10638 10642 10646 10652 10658 10664 10670
10720 10715 10710 10705 10700 10695 10690 10685 10680 10674 10669 10664 10659 10654 10648 10643 10639 10635 10631 10628 10625 10622 10620 10618 10617 10616 10616 10617 10618 10619 10620 10622 10624 10627 10630 10633 10636 10640 10646 10652 10659 10665
10711 10706 10701 10697 10692 10687 10682 10676 10671 10666 10660 10655 10650 10646 10640 10635 10631 10627 10623 10620 10618 10615 10613 10612 10611 10610 10610 10611 10612 10614 10616 10618 10620 10622 10625 10628 10631 10635 10640 10647 10653 10659
10703 10698 10693 10688 10684 10679 10673 10667 10662 10657 10651 10646 10641 10636 10631 10626 10622 10619 10615 10612 10610 10608 10606 10605 10605 10604 10605 10606 10608 10610 10612 10614 10616 10618 10620 10623 10626 10630 10636 10641 10646 10652
10695 10690 10685 10680 10675 10670 10663 10657 10652 10647 10641 10637 10632 10627 10621 10617 10613 10611 10608 10605 10602 10600 10599 10599 10599 10599 10600 10601 10603 10605 10607 10609 10611 10614 10616 10619 10622 10626 10630 10635 10640 10646
10688 10683 10678 10672 10666 10660 10654 10647 10642 10637 10632 10627 10622 10617 10611 10607 10604 10602 10600 10598 10595 10593 10593 10593 10593 10594 10595 10597 10599 10601 10603 10605 10608 10610 10613 10616 10619 10622 10626 10630 10635 10640
10680 10675 10670 10664 10657 10651 10644 10637 10632 10627 10621 10616 10612 10607 10602 10598 10596 10594 10592 10591 10589 10587 10586 10586 10587 10589 10590 10592 10595 10597 10599 10602 10604 10607 10610 10613 10616 10619 10623 10627 10631 10636